Prague, Czech Republic

8:25 AM CEST on October 19, 2017 (GMT +0200)
Ruzyne

Weather History for LKPR - March, 2012

Change the Weather History Date:

Tuesday, March 20, 2012

  Actual Average Record
Temperature  
Mean Temperature 42 °F -  
Max Temperature 55 °F 53 °F 66 °F (2014)
Min Temperature 28 °F 34 °F 23 °F (2005)
Degree Days  
Heating Degree Days 24    
Moisture  
Dew Point 25 °F    
Average Humidity 56    
Maximum Humidity 86    
Minimum Humidity 16    
Precipitation  
Precipitation 0.00 in 0.05 in - ()
Sea Level Pressure  
Sea Level Pressure 30.52 in    
Wind  
Wind Speed 7 mph ()    
Max Wind Speed 13 mph    
Max Gust Speed -    
Visibility 15.5 miles    
Events      
Averages and records for this station are not official NWS values.
T = Trace of Precipitation, MM = Missing Value Source: Averaged Metar Reports

Daily Weather History Graph

Daily Weather History Graph

Search for Another Location

Airport or City:

Trip Planner

Search our weather history database for the weather conditions in past years. The results will help you decide how hot, cold, wet, or windy it might be!

Date:

Astronomy

Mar. 20, 2012 Rise Set
Actual Time 6:05 AM CET 6:16 PM CET
Civil Twilight 5:32 AM CET 6:48 PM CET
Nautical Twilight 4:54 AM CET 7:26 PM CET
Astronomical Twilight 4:15 AM CET 8:06 PM CET
Moon 4:48 AM CET (3/20) 4:20 PM CET (3/20)
Length of Visible Light 13h 15m
Length of Day
12h 11m
Waning Crescent, 5% of the Moon is Illuminated
Mar 20
Waning Crescent
Mar 22
New
Mar 30
First Quarter
Apr 6
Full
Apr 13
Last Quarter

Hourly Weather History & Observations

Time (CET) Temp. Windchill Dew Point Humidity Pressure Visibility Wind Dir Wind Speed Gust Speed Precip Events Conditions
12:00 AM 32.0 °F 25.6 °F 24.8 °F 75% 30.48 in - SW 6.9 mph - N/A   Clear
12:30 AM 32.0 °F 25.6 °F 24.8 °F 75% 30.48 in - SW 6.9 mph - N/A   Clear
1:00 AM 31 °F - 24 °F 67% 30.58 in 12 mi SW 6.7 mph - -  
1:00 AM 30.2 °F 23.4 °F 24.8 °F 80% 30.51 in - SW 6.9 mph - N/A   Clear
1:30 AM 30.2 °F 23.4 °F 24.8 °F 80% 30.51 in - SW 6.9 mph - N/A   Clear
2:00 AM 30.2 °F 22.6 °F 24.8 °F 80% 30.51 in - SW 8.1 mph - N/A   Clear
2:30 AM 30.2 °F 22.6 °F 24.8 °F 80% 30.48 in - SW 8.1 mph - N/A   Clear
3:00 AM 30.2 °F 21.3 °F 24.8 °F 80% 30.48 in - SW 10.4 mph - N/A   Clear
3:30 AM 30.2 °F 22.6 °F 24.8 °F 80% 30.48 in - SSW 8.1 mph - N/A   Clear
4:00 AM 30.2 °F 21.9 °F 24.8 °F 80% 30.48 in - SW 9.2 mph - N/A   Clear
4:30 AM 30.2 °F 23.4 °F 24.8 °F 80% 30.48 in - SW 6.9 mph - N/A   Clear
5:00 AM 28.4 °F 21.2 °F 24.8 °F 86% 30.51 in - WSW 6.9 mph - N/A   Clear
5:30 AM 30.2 °F 26.7 °F 26.6 °F 86% 30.51 in - SW 3.5 mph - N/A   Clear
6:00 AM 30.2 °F 25.4 °F 24.8 °F 80% 30.51 in - WSW 4.6 mph - N/A   Clear
6:30 AM 30.2 °F 23.4 °F 24.8 °F 80% 30.51 in - SW 6.9 mph - N/A   Clear
7:00 AM 31 °F - 26 °F 74% 30.61 in 19 mi WSW 4.5 mph - -  
7:00 AM 30.2 °F 24.3 °F 26.6 °F 86% 30.51 in - SW 5.8 mph - N/A   Clear
7:30 AM 33.8 °F 27.0 °F 28.4 °F 81% 30.54 in - SW 8.1 mph - N/A   Clear
8:00 AM 35.6 °F 29.2 °F 28.4 °F 75% 30.54 in - SW 8.1 mph - N/A   Clear
8:30 AM 39.2 °F 34.2 °F 30.2 °F 70% 30.54 in - SW 6.9 mph - N/A   Clear
9:00 AM 41.0 °F 35.2 °F 30.2 °F 65% 30.54 in - WSW 9.2 mph - N/A   Clear
9:30 AM 42.8 °F 38.0 °F 30.2 °F 61% 30.54 in - West 8.1 mph - N/A   Clear
10:00 AM 46.4 °F 41.1 °F 28.4 °F 50% 30.57 in - WSW 11.5 mph - N/A   Clear
10:30 AM 46.4 °F 40.7 °F 26.6 °F 46% 30.57 in - West 12.7 mph - N/A   Clear
11:00 AM 48.2 °F - 24.8 °F 40% 30.54 in - WSW 11.5 mph - N/A   Clear
11:30 AM 48.2 °F - 23.0 °F 37% 30.54 in - WSW 10.4 mph - N/A   Clear
12:00 PM 50.0 °F - 23.0 °F 35% 30.54 in - West 9.2 mph - N/A   Clear
12:30 PM 51.8 °F - 24.8 °F 35% 30.54 in - West 9.2 mph - N/A   Clear
1:00 PM 52 °F - 19 °F 16% 30.54 in 31 mi West 8.9 mph - -   Clear
1:00 PM 51.8 °F - 21.2 °F 30% 30.51 in - WSW 9.2 mph - N/A   Clear
1:30 PM 53.6 °F - 19.4 °F 26% 30.51 in - West 9.2 mph - N/A   Clear
2:00 PM 53.6 °F - 19.4 °F 26% 30.51 in - West 6.9 mph - N/A   Clear
2:30 PM 55.4 °F - 21.2 °F 26% 30.51 in - WSW 6.9 mph - N/A   Clear
3:00 PM 55.4 °F - 21.2 °F 26% 30.48 in - West 6.9 mph - N/A   Clear
3:30 PM 55.4 °F - 23.0 °F 29% 30.48 in - WSW 5.8 mph - N/A   Clear
4:00 PM 55.4 °F - 24.8 °F 31% 30.48 in - WSW 6.9 mph - N/A   Clear
4:30 PM 55.4 °F - 24.8 °F 31% 30.48 in - WSW 6.9 mph - N/A   Clear
5:00 PM 55.4 °F - 23.0 °F 29% 30.48 in - WSW 6.9 mph - N/A   Clear
5:30 PM 53.6 °F - 24.8 °F 33% 30.48 in - SW 8.1 mph - N/A   Clear
6:00 PM 51.8 °F - 26.6 °F 38% 30.48 in - SW 8.1 mph - N/A   Clear
6:30 PM 48.2 °F - 26.6 °F 43% 30.48 in - West 4.6 mph - N/A   Clear
7:00 PM 44 °F - 26 °F 35% 30.54 in 37 mi SW 6.7 mph - -   Scattered Clouds
7:00 PM 44.6 °F 42.2 °F 26.6 °F 49% 30.51 in - WSW 4.6 mph - N/A   Clear
7:30 PM 46.4 °F 45.2 °F 26.6 °F 46% 30.51 in - SW 3.5 mph - N/A   Clear
8:00 PM 44.6 °F 42.2 °F 24.8 °F 46% 30.51 in - SSW 4.6 mph - N/A   Clear
8:30 PM 41.0 °F 35.8 °F 24.8 °F 53% 30.51 in - SW 8.1 mph - N/A   Clear
9:00 PM 41.0 °F 35.8 °F 26.6 °F 57% 30.54 in - SW 8.1 mph - N/A   Clear
9:30 PM 42.8 °F 38.0 °F 26.6 °F 53% 30.54 in - WSW 8.1 mph - N/A   Clear
10:00 PM 41.0 °F 37.1 °F 24.8 °F 53% 30.54 in - WSW 5.8 mph - N/A   Clear
10:30 PM 39.2 °F 34.2 °F 24.8 °F 56% 30.54 in - SW 6.9 mph - N/A   Clear
11:00 PM 39.2 °F 34.2 °F 24.8 °F 56% 30.54 in - SW 6.9 mph - N/A   Clear
11:30 PM 39.2 °F 34.2 °F 26.6 °F 61% 30.54 in - SW 6.9 mph - N/A   Clear